Location: Ahausen
(50.4985°N, 8.2722°E)
Time: 01:20:29
(UTC+00:00)

ITUPSAT 1 - Pass Details

Date: 06 July 2022
Orbit: 701 x 711 km, 98.6° (Epoch: 16 August)

Event Time Altitude Azimuth Distance (km) Brightness Sun altitude
Rises 21:14:01 0° 6° (N) 3,116 ? -10.8°
Reaches altitude 10° 21:16:34 10° 355° (N) 2,194 ? -11.0°
Maximum altitude 21:20:32 26° 299° (WNW) 1,374 ? -11.3°
Drops below altitude 10° 21:24:29 10° 243° (WSW) 2,186 ? -11.7°
Sets 21:27:01 0° 231° (SW) 3,102 ? -11.9°
